Flag for Russia Weather past 2 weeks in Surgut, Russia

Now
48 °F

Sprinkles. Broken clouds.


Feels Like: 47 °F
Forecast: 45 / 64 °F
Wind: 3 mph from East

Location: Surgut Airport

Current Time: Jul 26, 2014 at 7:43:45 AM

Latest Report: Jul 26, 2014 at 7:00 AM


Visibility: 4 mi

Pressure: 29.42 "Hg

Humidity: 100%

Dew point: 48 °F

Location of SurgutLocation

Historic Weather in Surgut — Graph

°F

Surgut temperature yesterday

Maximum temperature yesterday: 59 °F (at 4:00 PM)
Minimum temperature yesterday: 45 °F (at 11:30 PM)
Average temperature yesterday: 53 °F

Past Weeks' High & Low Weather Summary

 TemperatureHumidityPressure
High75 °F (Jul 21, 5:30 PM)100% (Jul 12, 2:00 PM)29.95 "Hg (Jul 12, 2:00 PM)
Low39 °F (Jul 16, 4:30 AM)42% (Jul 15, 5:30 PM)29.24 "Hg (Jul 24, 5:30 AM)
Average57 °F75%29.63 "Hg
* Reported Jul 11 6:00 AM — Jul 26 6:30 AM, Surgut, Weather by CustomWeather, © 2014

Note: Actual official high and low records may vary slightly from our data, if they occured in-between our weather recording intervals... More about our weather records

Advertising

Surgut weather history for previous 24 hours

 ConditionsComfort  
Time TempWeatherWind HumidityBarometerVisibility
6:30 AM
Jul 26
48 °FSprinkles. Broken clouds.3 mph94%29.45 "Hg4 mi
6:00 AM50 °FSprinkles. Broken clouds.No wind88%29.45 "Hg4 mi
5:30 AM50 °FSprinkles. Broken clouds.1 mph88%29.45 "Hg4 mi
5:00 AM50 °FSprinkles. Partly cloudy.1 mph88%29.45 "Hg4 mi
4:30 AM48 °FSprinkles. Partly cloudy.3 mph94%29.45 "Hg4 mi
4:00 AM46 °FSprinkles. Passing clouds.6 mph93%29.45 "Hg4 mi
3:30 AM48 °FPassing clouds.3 mph87%29.45 "Hg4 mi
3:00 AM45 °FPassing clouds.1 mph93%29.45 "Hg4 mi
2:30 AM43 °FPassing clouds.3 mph93%29.45 "Hg4 mi
2:00 AM43 °FPassing clouds.3 mph93%29.45 "Hg4 mi
1:30 AM43 °FPassing clouds.1 mph93%29.47 "Hg4 mi
1:00 AM43 °FPassing clouds.3 mph93%29.47 "Hg4 mi
12:30 AM43 °FPassing clouds.1 mph93%29.47 "Hg4 mi
12:00 AM45 °FPassing clouds.No wind93%29.47 "Hg4 mi
11:30 PM
Jul 25
45 °FPassing clouds.1 mph93%29.47 "Hg4 mi
11:00 PM46 °FScattered clouds.No wind93%29.47 "Hg4 mi
10:30 PM48 °FScattered clouds.No wind87%29.47 "Hg4 mi
10:00 PM52 °FBroken clouds.1 mph82%29.47 "Hg4 mi
9:30 PM54 °FPartly sunny.3 mph67%29.47 "Hg4 mi
9:00 PM55 °FPartly sunny.6 mph63%29.47 "Hg4 mi
8:30 PM55 °FPartly sunny.8 mph63%29.47 "Hg4 mi
8:00 PM57 °FPartly sunny.8 mph55%29.47 "Hg4 mi
7:30 PM57 °FBroken clouds.13 mph51%29.47 "Hg4 mi
7:00 PM57 °FBroken clouds.15 mph51%29.47 "Hg4 mi
6:30 PM57 °FScattered clouds.20 mph51%29.47 "Hg4 mi
6:00 PM59 °FScattered clouds.13 mph51%29.47 "Hg4 mi
5:30 PM59 °FBroken clouds.13 mph51%29.45 "Hg4 mi
5:00 PM57 °FBroken clouds.13 mph55%29.45 "Hg4 mi
4:30 PM57 °FPartly sunny.15 mph55%29.45 "Hg4 mi
4:00 PM59 °FScattered clouds.17 mph48%29.45 "Hg4 mi
3:30 PM57 °FScattered clouds.17 mph55%29.45 "Hg4 mi
3:00 PM57 °FScattered clouds.17 mph59%29.42 "Hg4 mi
2:30 PM57 °FScattered clouds.22 mph51%29.42 "Hg4 mi
2:00 PM57 °FScattered clouds.20 mph59%29.42 "Hg4 mi
1:30 PM57 °FPartly sunny.20 mph55%29.39 "Hg4 mi
1:00 PM55 °FPartly sunny.17 mph63%29.39 "Hg4 mi
12:30 PM55 °FScattered clouds.17 mph63%29.39 "Hg4 mi
12:00 PM54 °FScattered clouds.17 mph72%29.39 "Hg4 mi
11:30 AM52 °FScattered clouds.17 mph77%29.36 "Hg4 mi
11:00 AM52 °FScattered clouds.15 mph77%29.36 "Hg4 mi
10:30 AM52 °FSprinkles. Scattered clouds.17 mph82%29.36 "Hg4 mi
10:00 AM52 °FBroken clouds.13 mph88%29.33 "Hg4 mi
9:30 AM50 °FSprinkles. Broken clouds.13 mph88%29.33 "Hg4 mi
9:00 AM50 °FSprinkles. Broken clouds.10 mph94%29.33 "Hg4 mi
8:30 AM50 °FSprinkles. Broken clouds.10 mph94%29.33 "Hg4 mi
8:00 AM50 °FSprinkles. Broken clouds.13 mph94%29.33 "Hg4 mi
7:30 AM52 °FSprinkles. Broken clouds.13 mph88%29.33 "Hg4 mi
7:00 AM50 °FBroken clouds.13 mph94%29.30 "Hg4 mi
Weather by CustomWeather, © 2014

See weather overviewHow to use our weather pages